EST,Max TemperatureF,Mean TemperatureF,Min TemperatureF,Max Dew PointF,MeanDew PointF,Min DewpointF,Max Humidity, Mean Humidity, Min Humidity, Max Sea Level PressureIn, Mean Sea Level PressureIn, Min Sea Level PressureIn, Max VisibilityMiles, Mean VisibilityMiles, Min VisibilityMiles, Max Wind SpeedMPH, Mean Wind SpeedMPH, Max Gust SpeedMPH,PrecipitationIn, CloudCover, Events, WindDirDegrees
2012-12-1,73,62,51,55,54,50,100,76,50,30.37,30.31,30.28,10,9,5,7,3,,0.00,6,,93
2012-12-2,77,66,55,59,55,52,100,74,41,30.37,30.31,30.26,10,10,5,7,2,,0.00,3,,112
2012-12-3,75,64,53,63,57,52,100,87,57,30.35,30.29,30.25,10,6,0,6,1,,0.00,4,Fog,125
2012-12-4,75,64,53,63,57,52,100,84,50,30.36,30.29,30.25,10,7,0,6,1,,0.00,6,Fog,175
2012-12-5,77,62,48,55,51,46,100,75,39,30.26,30.17,30.10,10,8,0,7,1,,0.00,1,Fog,58
2012-12-6,69,61,53,61,56,52,100,86,60,30.15,30.10,30.07,10,10,4,9,3,,0.00,7,Rain,64
2012-12-7,64,58,51,55,54,50,100,89,72,30.11,30.06,30.00,10,8,0,9,4,,0.00,5,Fog,55
2012-12-8,73,62,50,63,56,50,100,87,64,30.10,30.05,30.01,10,6,0,5,1,,0.00,6,Fog,153
2012-12-9,71,63,55,64,62,55,100,92,73,30.14,30.08,30.03,10,6,0,6,2,,0.00,7,Fog,278
2012-12-10,77,64,51,64,58,52,100,82,47,30.02,29.91,29.80,10,6,0,14,3,18,0.00,5,Fog,212
2012-12-11,68,60,51,64,57,45,100,89,72,30.13,29.98,29.84,10,9,1,9,5,,0.00,7,Rain,332
2012-12-12,51,48,46,50,47,45,100,92,76,30.21,30.15,30.09,10,8,2,10,5,,0.00,8,Rain,17
2012-12-13,48,46,44,46,44,43,100,93,87,30.33,30.28,30.18,10,9,2,14,8,18,0.00,8,Rain,28
2012-12-14,62,50,39,46,43,37,100,81,52,30.38,30.29,30.20,10,8,3,10,3,,0.00,1,,49
2012-12-15,64,55,46,55,49,43,100,81,67,30.24,30.17,30.10,10,9,2,6,3,,0.00,4,,70
2012-12-16,77,66,55,61,59,54,100,85,54,30.11,30.01,29.92,10,7,0,13,3,18,0.00,6,Fog,199
2012-12-17,71,65,59,64,61,57,100,93,78,29.96,29.88,29.81,10,9,2,17,6,37,0.00,5,Rain-Thunderstorm,223
2012-12-18,68,54,41,59,46,32,100,74,28,30.07,29.95,29.83,10,8,0,14,4,21,0.00,2,Fog,287
2012-12-19,71,54,37,43,39,32,100,70,25,30.16,30.10,30.07,10,10,10,7,0,,0.00,0,,245
2012-12-20,77,60,42,68,51,37,100,78,54,30.11,29.95,29.77,10,10,3,23,6,34,0.00,3,Rain,214
2012-12-21,53,47,41,36,25,19,66,46,28,30.19,30.08,29.98,10,10,10,21,13,31,0.00,0,,290
2012-12-22,55,44,32,32,23,19,93,52,26,30.31,30.24,30.19,10,10,10,13,6,17,0.00,0,,293
2012-12-23,62,46,30,39,31,23,100,65,22,30.28,30.21,30.13,10,10,10,7,1,,0.00,0,,266
2012-12-24,66,54,42,59,47,36,100,82,60,30.15,30.02,29.92,10,10,1,17,3,28,0.00,5,Rain,204
2012-12-25,60,58,57,61,59,55,100,98,94,30.01,29.95,29.84,10,3,0,12,2,16,0.00,8,Fog-Rain-Thunderstorm,123
2012-12-26,64,52,41,63,46,32,94,73,50,30.01,29.80,29.62,10,10,5,25,13,46,0.00,7,Rain-Thunderstorm,258
2012-12-27,53,44,35,37,34,32,100,71,47,30.12,30.07,30.01,10,10,10,15,7,20,0.00,1,,301
2012-12-28,53,42,32,46,37,32,100,80,54,30.15,30.06,29.90,10,9,5,7,1,,0.00,3,,110
2012-12-29,59,50,41,57,44,30,100,79,61,30.23,29.96,29.75,10,9,3,20,9,29,0.00,8,Rain,289
2012-12-30,51,42,33,34,30,28,93,64,41,30.45,30.40,30.23,10,10,10,14,6,18,0.00,0,,11
2012-12-31,64,48,32,50,40,30,100,78,52,30.43,30.34,30.24,10,10,7,8,1,,0.00,2,,171